Regional Weather Roundup
Issued by NWS San Angelo, TX

Home | Current Version | Previous Version | Text Only | Print | Product List | Glossary Off
Versions: 1 2 3 4 5 6 7 8 9 10 11 12 13 14 15 16 17 18 19 20 21 22 23 24 25 26 27 28 29 30 31 32 33 34 35 36 37 38 39 40 41 42 43 44 45 46 47 48 49 50

000
ASUS44 KSJT 170010
RWRSJT
WEST CENTRAL TEXAS REGIONAL WEATHER ROUNDUP
NATIONAL WEATHER SERVICE SAN ANGELO TX
700 PM CDT MON OCT 16 2017

NOTE: "FAIR" INDICATES FEW OR NO CLOUDS BELOW 12,000 FEET WITH NO
SIGNIFICANT WEATHER AND/OR OBSTRUCTIONS TO VISIBILITY.

TXZ049-054-064>066-071>073-076>078-098-099-113-114-127-128-139-140-
154-155-168>170-170100
...LOCATIONS ACROSS WEST CENTRAL TEXAS...

CITY           SKY/WX    TMP DP  RH WIND       PRES   REMARKS
SAN ANGELO     CLEAR     67  38  34 E5        30.30S
ABILENE        CLEAR     67  34  29 CALM      30.30S
DYESS AFB      CLEAR     67  38  34 CALM      30.29S
JUNCTION       CLEAR     71  32  23 NE7       30.28R
SWEETWATER     CLEAR     66  31  27 CALM      30.33S
BROWNWOOD      CLEAR     68  32  26 NE5       30.29R
COLEMAN        CLEAR     69  33  26 CALM      30.29S
SONORA         CLEAR     66  28  24 CALM      30.34S
OZONA          FAIR      70  25  18 NE5       30.33S
BRADY          NOT AVBL
$$

TEXAS PANHANDLE/OKLAHOMA PANHANDLE

CITY           SKY/WX    TMP DP  RH WIND       PRES   REMARKS
AMARILLO       CLEAR     65  34  31 S12       30.26F
BORGER         CLEAR     69  34  27 S10       30.22F
CANADIAN       CLEAR     66  34  30 S10       30.23S
DALHART        CLEAR     68  36  30 S10       30.23S
DUMAS          CLEAR     66  36  32 S9        30.22S
GUYMON         NOT AVBL
HEREFORD       CLEAR     68  36  30 SW6       30.27S
PAMPA          CLEAR     64  35  33 S10       30.26S
PERRYTON       CLEAR     69  35  28 S9        30.20F
$$

SOUTHERN PANHANDLE/SOUTH PLAINS/ROLLING PLAINS

CITY           SKY/WX    TMP DP  RH WIND       PRES   REMARKS
LUBBOCK        CLEAR     64  29  26 S8        30.29F
SNYDER         CLEAR     68  31  25 CALM      30.31S
CHILDRESS      CLEAR     64  37  36 S7        30.28F
SEMINOLE       CLEAR     65  29  25 S6        30.32S
$$

PERMIAN BASIN

CITY           SKY/WX    TMP DP  RH WIND       PRES   REMARKS
MIDLAND        CLEAR     67  31  26 S9        30.32S
ODESSA         NOT AVBL
WINK           CLEAR     66  37  34 S8        30.30S
$$

FAR WEST/SOUTHWEST MOUNTAINS/TRANS PECOS

CITY           SKY/WX    TMP DP  RH WIND       PRES   REMARKS
ALPINE         CLEAR     67  34  29 E6        30.41S
DRYDEN           N/A     71  35  26 CALM      30.28S
EL PASO        CLEAR     77  39  25 E5        30.27F
FORT STOCKTON  CLEAR     66  39  37 E3        30.32F
GUADALUPE PASS CLEAR     63  33  32 E13       30.39S
MARFA          CLEAR     68  35  29 NE9       30.38R
PECOS          CLEAR     65  40  39 E7        30.31S
$$

DALLAS/FORT WORTH METROPLEX

CITY           SKY/WX    TMP DP  RH WIND       PRES   REMARKS
DFW AIRPORT    CLEAR     68  39  34 N5        30.25S
FTW MEACHAM    CLEAR     69  38  32 NE5       30.27R
DAL-EXECUTIVE  CLEAR     68  40  35 E5        30.26S
GRAND PRAIRIE  CLEAR     66  36  32 N6        30.28S
ADDISON        CLEAR     70  34  26 NE5       30.27S
MESQUITE       NOT AVBL
LANCASTER      CLEAR     68  38  33 N3        30.27S
$$

NORTH CENTRAL TEXAS

CITY           SKY/WX    TMP DP  RH WIND       PRES   REMARKS
SHRMAN/DENISON CLEAR     65  38  36 CALM      30.29S
GAINESVILLE    CLEAR     63  40  42 E3        30.30S
BRIDGEPORT     CLEAR     64  43  46 CALM      30.30S
DENTON         CLEAR     66  38  35 CALM      30.27S
WAXAHACHIE     CLEAR     65  42  42 CALM      30.28S
GRANBURY       CLEAR     69  36  29 CALM      30.29R
$$

WESTERN NORTH TEXAS

CITY           SKY/WX    TMP DP  RH WIND       PRES   REMARKS
WICHITA FALLS  CLEAR     66  36  32 CALM      30.27F
VERNON         CLEAR     67  30  24 SE3       30.29S
BRECKENRIDGE   CLEAR     70  36  28 NE3       30.28S HAZE
COMANCHE       CLEAR     67  37  32 CALM      30.29R
$$

CENTRAL AND SOUTH CENTRAL TEXAS

CITY           SKY/WX    TMP DP  RH WIND       PRES   REMARKS
AUSTIN/BERGSTM CLEAR     64  44  48 N8        30.23R
WACO           CLEAR     67  37  33 N7        30.25S
HILLSBORO      CLEAR     67  40  36 N3        30.26S
TEMPLE         CLEAR     68  38  33 N8        30.25S
KILLEEN-GRAY   CLEAR     67  36  32 NE8       30.24S
FORT HOOD      CLEAR     68  39  34 NE6       30.22S
GEORGETOWN     CLEAR     69  39  33 N6        30.26S
LAGO VISTA     FAIR      67  38  35 NE6       30.26S
SAN MARCOS     CLEAR     69  41  36 N8        30.24R
NEW BRAUNFELS  CLEAR     68  43  40 NE7       30.22R
RANDOLPH AFB   CLEAR     72  39  30 N6        30.23R
SAN ANTONIO    CLEAR     72  38  29 N7        30.23S
STINSON        CLEAR     74  41  30 N5        30.21R
PLEASANTON     NOT AVBL
LA GRANGE      CLEAR     72  45  38 N3        30.21R
GIDDINGS       CLEAR     70  41  34 N6        30.23R
$$

EAST TEXAS

CITY           SKY/WX    TMP DP  RH WIND       PRES   REMARKS
PARIS          CLEAR     66  39  37 NE5       30.28S HAZE
CLARKSVILLE    NOT AVBL
TYLER          CLEAR     67  36  31 NE5       30.25R
LONGVIEW       CLEAR     67  40  37 N5        30.24R
PALESTINE      CLEAR     68  42  40 N6        30.25S
NACOGDOCHES    CLEAR     67  40  37 NE3       30.24R
$$

TEXAS HILL COUNTRY AND EDWARDS PLATEAU

CITY           SKY/WX    TMP DP  RH WIND       PRES   REMARKS
LLANO          HAZE      70  34  26 CALM      30.30R VSB 1
HORSESHOE BAY  FAIR      70  38  30 CALM      30.26R
KERRVILLE      CLEAR     70  37  29 NE5       30.27S
FREDERICKSBRG  CLEAR     65  33  30 NE3       30.28R
ROCKSPRINGS    NOT AVBL
HONDO          CLEAR     72  39  30 NE5       30.24R
UVALDE         LGT RAIN  73  41  31 NW3       30.25R
DEL RIO        CLEAR     71  43  36 W6        30.24F
$$

SOUTHEAST TEXAS

CITY           SKY/WX    TMP DP  RH WIND       PRES   REMARKS
COLLEGE STN    CLEAR     71  41  33 N10       30.22R
CALDWELL       CLEAR     67  44  43 N5        30.23R
CROCKETT         N/A     68  41  37 CALM      30.26R
BRENHAM        CLEAR     70  44  39 CALM      30.22R
HUNTSVILLE     CLEAR     69  40  34 CALM      30.21R
CONROE         CLEAR     65  51  60 N3        30.21R
HOUSTON BUSH   PTCLDY    70  47  43 NE7       30.19R
HOUSTON HOBBY  PTCLDY    73  45  36 N12       30.18R
PERLAND        CLEAR     73  45  36 N8        30.19R
WHARTON        CLEAR     68  43  40 N6        30.20R
$$

THE UPPER TEXAS COAST

CITY           SKY/WX    TMP DP  RH WIND       PRES   REMARKS
ORANGE         CLEAR     68  50  52 N5        30.19R
PORT ARTHUR    LGT RAIN  69  47  45 N13       30.17R
GALVESTON      CLEAR     74  51  44 N16       30.17R
ANGLETON       CLEAR     67  46  47 N8        30.18R
BAY CITY       CLEAR     71  47  41 N6        30.18R
$$

TEXAS COASTAL BEND, RIO GRANDE PLAINS DEEP SOUTH TEXAS

CITY           SKY/WX    TMP DP  RH WIND       PRES   REMARKS
VICTORIA       CLEAR     66  50  56 N6        30.20R
BEEVILLE       FAIR      69  37  30 N6        30.21R
ROCKPORT       CLEAR     73  47  39 N10       30.18R
PORT ARANSAS   NOT AVBL
PORT LAVACA    CLEAR     71  46  40 N8        30.19R
CORPUS CHRISTI CLEAR     73  45  36 N13       30.19R
KINGSVILLE NAS PTCLDY    75  45  34 N10       30.19R
COTULLA        CLEAR     72  40  31 NW5       30.23S
LAREDO         CLEAR     72  42  34 N8        30.24R
BROWNSVILLE    CLEAR     74  58  57 N8        30.16R
PORT ISABEL    CLEAR     74  57  55 N12       30.16R
HEBBRONVILLE   CLEAR     73  38  27 N5        30.23R
MCALLEN        CLEAR     80  49  33 N13       30.18R
WESLACO        CLEAR     75  49  39 N7        30.17R
FALFURRIAS     CLEAR     74  41  30 NW5       30.19S
EDINBURG       CLEAR     75  47  36 N7        30.19R
$$



USA.gov is the U.S. government's official web portal to all federal, state and local government web resources and services.